Location: Bennemühlen
(52.5740°N, 9.7135°E)
Time: 02:16:03
(UTC+00:00)

Vanguard 2 Rocket - Pass Details

Date: 23 February 2026
Orbit: 553 x 3286 km, 32.9° (Epoch: 12 March)

Event Time Altitude Azimuth Distance (km) Brightness Sun altitude
Rises 12:31:52 0° 249° (WSW) 7,259 12.0 26.5°
Reaches altitude 10° 12:37:26 10° 242° (WSW) 6,195 11.9 26.3°
Maximum altitude 12:53:34 36° 186° (S) 3,788 11.9 25.5°
Drops below altitude 10° 13:05:16 10° 127° (SE) 4,521 10.7 24.8°
Sets 13:08:36 0° 119° (ESE) 5,170 10.8 24.5°
